Regional Weather Roundup
Issued by NWS

Home | Current Version | Previous Version | Graphics & Text | Print | Product List | Glossary On
Versions: 1 2 3 4 5 6 7 8 9 10 11 12 13 14 15 16 17 18 19 20 21 22 23 24 25 26 27 28 29 30 31 32 33 34 35 36 37 38 39 40 41 42 43 44 45 46 47 48 49 50
000
ASUS43 KOAX 181910
RWRNE

WEATHER ROUNDUP FOR NEBRASKA
NATIONAL WEATHER SERVICE OMAHA NE
200 PM CDT FRI AUG 18 2017

NOTES: SATELLITE DATA IS BEING USED TO AUGMENT CLOUD COVER ABOVE
       12000 FEET.
       "FAIR" INDICATES FEW OR NO CLOUDS BELOW 12,000 FEET WITH NO
       SIGNIFICANT WEATHER AND/OR OBSTRUCTIONS TO VISIBILITY.


NEZ001>004-019>022-054>056-182000-
NEBRASKA PANHANDLE

CITY           SKY/WX    TMP DP  RH WIND       PRES   REMARKS
SCOTTSBLUFF    SUNNY     84  42  22 W6        30.11F
ALLIANCE       SUNNY     83  43  24 W8        30.09F
CHADRON        SUNNY     87  38  17 NW10      30.04F
GORDON         FAIR      84  48  28 NW10G18   30.06F
KIMBALL        SUNNY     81  43  26 CALM      30.18F
SIDNEY         SUNNY     85  39  19 W6        30.15F
$$

NEZ057>060-069>072-079>082-182000-
SOUTHWEST NEBRASKA

CITY           SKY/WX    TMP DP  RH WIND       PRES   REMARKS
NORTH PLATTE   SUNNY     86  57  37 NW3       30.03F
IMPERIAL       SUNNY     84  49  29 NW5       30.08F
LEXINGTON      SUNNY     83  64  52 NW6       30.01F
MCCOOK         SUNNY     87  58  37 NE9       30.03S
OGALLALA       SUNNY     85  48  27 NW5       30.07F
$$

NEZ005>010-023>029-035>040-094-182000-
NORTH CENTRAL NEBRASKA

CITY           SKY/WX    TMP DP  RH WIND       PRES   REMARKS
VALENTINE      SUNNY     86  47  25 N13       29.99
AINSWORTH      SUNNY     82  58  43 NW10      29.99S
BROKEN BOW     SUNNY     87  54  32 NW10      30.00F
O`NEILL        SUNNY     82  63  52 W8        29.96F
ORD            SUNNY     84  55  36 NW8       29.96F
THEDFORD       SUNNY     87  49  27 NW13G20   30.02F
$$

NEZ041-046>049-061>064-073>077-083>087-182000-
SOUTH CENTRAL NEBRASKA

CITY           SKY/WX    TMP DP  RH WIND       PRES   REMARKS
GRAND ISLAND   SUNNY     84  64  50 NW6       29.97F
AURORA         SUNNY     81  65  57 NW5       29.97S
HASTINGS       SUNNY     83  64  52 NW6       29.99F
HEBRON         SUNNY     85  64  49 W6        29.95F
HOLDREGE       SUNNY     80  63  55 N6        30.01S
KEARNEY        SUNNY     83  62  49 VRB6      29.99F
YORK           MOSUNNY   79  66  65 NW3       29.97S
$$

NEZ011>018-030>034-042>045-182000-
NORTHEAST NEBRASKA

CITY           SKY/WX    TMP DP  RH WIND       PRES   REMARKS
NORFOLK        SUNNY     80  63  55 VRB5      29.91F
ALBION         SUNNY     82  64  55 SW3       29.95F
BLAIR          SUNNY     81  64  56 W7        29.93F
COLUMBUS       SUNNY     80  66  62 W5        29.95F
FREMONT        SUNNY     81  64  56 W3        29.93F
TEKAMAH        SUNNY     81  62  52 VRB3      29.91F
WAYNE          SUNNY     79  70  74 S6        29.92F
$$

NEZ050>053-065>068-078-088>093-182000-
SOUTHEAST NEBRASKA

CITY           SKY/WX    TMP DP  RH WIND       PRES   REMARKS
LINCOLN        MOSUNNY   84  63  49 NW8       29.94F
OMAHA EPPLEY   MOSUNNY   85  60  42 NW9       29.91F
BEATRICE       SUNNY     84  65  52 NW8       29.95S
FALLS CITY     SUNNY     86  64  47 N12G18    29.91S
NEBRASKA CITY  CLOUDY    81  67  61 N5        29.94S
PLATTSMOUTH    SUNNY     82  60  46 W3        29.93F
$$

NEZ044-045-051>053-067-182000-
OMAHA AREA

CITY           SKY/WX    TMP DP  RH WIND       PRES   REMARKS
OMAHA EPPLEY   MOSUNNY   85  60  42 NW9       29.91F
BLAIR          SUNNY     81  64  56 W7        29.93F
FREMONT        SUNNY     81  64  56 W3        29.93F
MILLARD        SUNNY     84  62  48 W8        29.92F
OFFUTT AFB     SUNNY     86  59  39 NW6       29.91F
PLATTSMOUTH    SUNNY     82  60  46 W3        29.93F
WAHOO          FAIR      81  66  61 W7        29.94S
$$



USA.gov is the U.S. government's official web portal to all federal, state and local government web resources and services.